GFSNE_sfc_30mbdewp_057.txt.gz
Dewpoint
31 32 33 33 34 35 34 34 32 28 26 25 24 22 19 20 19 21 22 22 23 23 22 21 22 22 22 23 23 23 24 24 25 26 26 26 27 30
32 32 32 32 32 31 31 32 34 31 26 23 20 19 19 18 18 19 20 21 21 22 22 24 24 26 26 25 24 24 24 25 25 24 24 25 28 30
32 32 32 31 30 29 28 25 21 19 17 17 19 19 19 18 18 20 21 21 22 23 24 25 25 24 24 25 25 26 25 24 24 25 27 26 28 31
31 31 30 29 27 25 22 20 18 17 16 14 17 18 18 18 18 20 21 22 23 23 21 21 19 20 21 22 24 27 28 28 28 26 26 27 28 28
31 30 29 29 28 24 20 17 17 17 18 18 18 18 18 18 19 21 21 23 21 18 18 18 20 22 23 23 26 25 24 28 31 31 31 31 30 30
29 26 24 24 23 18 17 16 16 17 18 18 17 16 17 19 20 20 21 19 18 18 20 21 21 23 24 24 24 25 25 26 28 30 33 34 34 33
26 24 23 22 23 21 17 16 17 18 18 17 16 15 17 17 19 21 18 17 18 19 19 20 21 22 23 24 25 26 26 26 27 30 31 32 35 34
24 22 23 24 23 23 21 22 20 18 16 16 14 15 17 18 18 17 17 18 17 20 21 21 22 22 23 24 25 27 27 28 28 29 31 33 34 33
23 22 22 22 22 23 24 23 21 20 19 16 15 16 17 16 16 19 20 20 20 22 22 20 21 22 23 23 25 26 28 29 29 30 31 31 33 30
23 23 23 22 22 21 19 18 18 18 17 15 17 18 18 19 20 22 23 22 22 21 22 19 20 21 23 24 24 26 30 31 31 31 32 32 32 31
24 24 25 27 24 24 21 19 18 18 16 16 18 19 19 19 19 20 17 19 17 17 20 21 21 20 22 23 24 27 28 30 31 30 32 32 32 31
27 27 28 26 23 24 22 19 18 18 14 15 17 17 18 18 18 18 19 18 18 16 20 20 19 22 21 23 24 24 25 29 30 32 32 33 33 31
28 27 26 25 24 23 23 20 20 19 16 18 19 18 18 18 16 17 19 19 17 18 19 22 22 24 24 23 24 24 25 28 31 31 30 31 31 31
27 27 27 26 25 25 23 24 24 22 21 20 19 18 16 16 15 18 19 20 21 21 22 23 23 23 23 23 21 23 25 28 31 30 29 28 30 31
29 29 28 27 28 26 25 26 25 24 22 19 17 16 16 15 16 18 18 18 19 21 21 20 22 22 23 23 24 25 24 26 28 30 29 29 29 27
30 30 29 27 27 25 24 25 24 22 20 19 18 16 15 15 15 17 17 17 17 16 17 19 20 22 22 24 26 25 24 24 26 27 29 26 27 28
28 29 26 25 24 24 23 23 22 21 20 19 17 16 13 15 15 16 17 17 14 14 15 17 18 19 21 26 24 23 24 25 29 28 26 26 27 29
27 26 24 23 23 23 22 22 21 20 20 19 17 15 13 14 14 15 16 15 13 13 14 15 16 15 18 20 27 24 23 23 26 28 27 26 25 27
27 26 23 24 23 22 21 21 20 20 20 19 17 14 14 13 14 14 14 14 13 13 13 14 15 15 14 13 18 27 23 23 24 26 26 25 25 27
29 26 23 23 22 21 21 20 20 20 20 20 17 14 13 13 13 14 14 13 13 13 13 12 11 13 15 15 17 20 26 23 21 22 24 25 27 28
26 27 26 24 23 22 22 21 20 20 18 17 16 14 13 12 13 14 13 13 13 13 11 10 9 13 19 22 18 19 23 25 25 23 23 23 24 25
27 26 26 26 24 23 22 21 20 20 19 17 15 14 13 11 13 13 11 13 14 13 11 11 11 13 16 17 18 20 22 21 22 23 25 25 22 20
28 27 26 26 25 24 23 21 21 20 19 18 17 15 14 12 14 12 11 13 14 11 10 9 9 11 11 16 17 18 20 21 22 21 20 23 25 27

GFSNE_sfc_30mbdewp_060.txt.gz
Dewpoint
31 31 31 32 33 33 34 33 33 27 27 26 25 23 20 18 19 21 20 20 20 22 23 22 22 23 23 24 24 24 25 26 27 26 25 26 28 28
32 31 31 32 32 32 32 33 34 32 27 27 22 21 19 18 19 19 19 21 22 23 24 23 24 24 25 26 26 25 25 25 26 25 27 27 27 27
31 31 32 32 31 30 30 30 29 30 26 20 20 19 18 18 19 19 21 21 22 23 24 23 23 23 23 22 23 24 24 25 25 25 25 25 25 26
30 31 31 31 29 27 25 23 21 19 17 14 16 18 18 18 18 19 20 20 22 23 21 18 19 20 21 22 23 24 24 25 28 28 27 26 25 24
31 31 30 30 28 28 24 21 19 17 17 17 17 19 18 18 18 20 21 21 23 19 17 18 21 23 23 24 25 25 24 26 27 27 28 30 29 28
30 30 29 25 24 24 24 20 17 16 17 17 18 17 16 17 20 19 18 19 17 17 19 21 21 22 23 24 25 25 27 27 26 28 29 30 32 32
27 27 25 24 25 22 18 17 17 16 17 18 17 16 14 15 16 18 17 17 18 19 19 20 21 22 23 23 24 24 26 27 28 28 28 30 31 33
26 26 24 24 26 27 28 24 18 17 18 17 16 15 13 15 18 17 17 17 15 20 21 20 21 21 22 23 23 25 26 27 28 28 29 30 30 32
26 25 23 22 24 23 24 25 25 23 20 18 17 15 14 17 17 18 19 19 18 19 20 19 20 20 21 21 22 24 25 27 31 31 30 31 31 32
27 25 24 23 23 23 21 22 21 20 19 19 18 16 17 19 19 20 21 21 20 19 20 17 19 20 21 22 23 25 26 28 29 31 31 31 31 32
28 26 25 24 24 25 28 22 20 19 19 21 19 19 20 20 19 19 16 17 16 14 16 20 21 19 21 23 25 26 27 28 27 29 31 30 29 31
28 27 27 27 27 29 25 23 20 19 19 16 14 18 19 18 19 18 18 17 16 14 20 18 16 20 19 23 23 24 25 25 27 29 30 32 30 30
28 28 28 28 29 29 26 23 21 20 19 16 15 18 19 19 18 17 18 19 17 16 17 20 20 19 21 21 23 24 25 25 27 29 32 31 31 32
28 28 28 28 28 28 26 25 24 23 22 20 19 19 19 18 17 16 18 20 20 19 20 22 20 19 20 19 18 23 25 26 27 29 30 30 29 31
30 29 29 29 29 29 28 26 27 25 23 21 20 20 18 18 17 17 19 18 19 19 18 20 21 21 21 19 19 22 25 24 27 27 29 30 30 29
31 31 30 29 29 29 28 29 27 25 24 22 20 19 18 16 14 17 16 16 17 15 16 18 20 20 18 20 21 23 24 23 26 28 29 29 28 29
29 29 28 28 27 25 25 25 25 24 22 21 20 19 17 15 14 16 16 16 15 14 14 15 16 17 18 20 20 24 23 23 26 28 27 27 27 28
28 26 26 25 24 24 23 23 23 23 22 22 20 19 18 16 14 15 16 15 14 13 14 14 14 15 16 17 25 24 23 22 23 27 27 25 25 27
28 27 26 25 24 24 24 23 22 22 22 21 20 18 18 15 14 14 15 14 13 13 13 15 13 13 13 12 15 27 22 22 22 22 26 25 24 25
29 27 26 25 25 24 23 23 22 22 21 19 19 18 17 15 14 14 14 13 13 13 13 13 12 10 13 14 16 18 22 24 22 21 22 24 25 27
27 27 28 27 25 24 24 23 22 22 20 19 19 18 16 14 14 14 14 13 12 14 13 11 11 12 14 19 18 19 23 25 24 23 23 22 22 23
19 24 26 27 27 24 24 23 21 21 20 18 17 17 15 14 14 13 13 12 13 14 12 12 11 12 15 17 17 19 21 22 23 22 24 25 22 19
12 14 16 20 26 26 24 23 21 20 20 19 18 17 15 14 15 14 13 12 13 14 11 10 9 11 10 15 15 16 18 19 22 21 20 22 24 27

GFSNE_sfc_30mbdewp_063.txt.gz
Dewpoint
35 34 33 31 32 31 31 31 29 25 21 23 27 28 26 23 20 20 19 17 20 22 23 23 24 24 25 24 24 24 26 26 27 27 26 27 28 27
34 34 32 32 31 32 31 31 31 29 27 24 25 25 23 18 18 20 17 18 18 21 23 24 25 25 24 25 25 25 26 25 25 26 26 29 28 27
33 33 32 32 31 31 31 31 30 29 27 23 23 20 20 19 18 17 15 16 17 19 23 25 23 22 22 22 23 23 23 24 24 24 25 25 25 28
32 32 31 29 31 31 30 29 27 26 24 21 19 18 18 19 18 17 12 15 16 17 22 20 21 19 22 23 23 24 24 24 24 24 24 27 28 27
31 31 29 29 29 29 29 28 26 24 22 19 17 17 18 18 17 13 12 16 15 16 16 17 19 21 23 23 24 25 25 26 26 26 27 27 27 26
32 31 30 30 29 28 26 26 25 23 20 18 17 17 17 17 16 11 11 12 12 14 15 18 20 20 21 22 23 25 25 26 26 27 28 29 29 29
31 29 29 29 28 27 25 23 22 19 18 18 17 17 16 15 12 9 12 12 13 15 15 15 15 16 17 18 20 23 24 26 27 27 28 29 30 30
29 28 28 28 28 28 29 27 22 20 19 19 18 17 16 16 14 12 13 13 13 15 15 14 14 16 17 18 19 22 24 25 26 27 28 30 30 31
29 28 27 26 26 26 25 25 27 26 21 21 21 20 19 18 12 13 13 14 14 14 15 14 14 17 19 18 21 23 25 26 27 28 31 32 32 32
30 29 28 28 27 26 25 23 23 24 24 22 21 20 19 16 14 16 17 16 16 14 14 14 16 18 19 20 22 25 27 28 28 29 28 30 32 32
30 30 29 28 27 27 26 25 24 25 23 22 21 21 21 20 21 19 17 14 14 13 14 16 15 15 18 21 23 23 25 26 26 27 27 28 30 30
29 30 30 29 28 27 27 27 27 25 22 19 19 19 18 18 20 18 17 15 14 14 11 14 14 15 16 19 22 23 24 26 27 27 27 29 30 32
29 29 29 29 29 29 29 29 29 26 23 20 19 17 15 16 17 17 17 16 16 14 13 15 15 14 15 16 17 19 23 25 27 28 29 30 29 31
30 31 31 30 29 30 30 30 28 26 24 23 22 20 19 19 18 18 17 17 17 16 16 19 17 15 15 16 16 17 20 25 27 27 28 29 32 32
29 29 30 31 31 30 30 30 28 27 26 25 22 20 20 20 20 19 17 17 16 16 16 16 17 17 18 18 17 18 19 23 25 28 29 29 30 31
28 29 29 31 31 31 30 30 30 29 27 25 23 21 22 21 21 19 17 17 16 16 16 16 17 16 16 16 16 17 18 25 25 28 30 32 31 30
27 27 29 29 29 29 28 29 29 29 27 26 25 23 22 20 20 19 18 17 16 14 14 14 14 14 15 15 17 17 21 23 26 27 29 27 30 28
27 27 28 28 28 28 27 26 26 26 26 26 25 24 23 21 20 19 18 18 16 14 13 14 13 13 15 18 21 20 22 22 24 23 28 26 25 27
27 28 29 27 27 27 27 26 25 25 26 26 24 23 23 22 21 20 18 18 16 14 14 14 13 12 14 15 17 24 22 21 23 22 24 26 26 27
17 16 25 28 29 28 27 25 25 25 25 24 24 23 23 21 20 19 18 18 15 13 13 13 11 9 13 16 17 20 22 24 23 22 23 24 28 27
13 14 16 17 22 28 27 27 27 26 25 25 24 23 22 20 21 19 18 16 15 13 12 12 12 13 13 17 19 20 26 25 24 23 23 23 24 25
10 10 12 14 16 19 26 28 27 25 25 24 24 24 22 22 21 19 19 17 15 14 13 13 11 10 14 16 16 18 20 23 25 23 23 25 23 20
9 9 10 11 13 15 17 19 25 24 24 24 24 23 22 21 21 20 19 17 15 14 14 12 9 10 11 13 17 17 19 20 22 22 22 22 24 26

GFSNE_sfc_30mbdewp_069.txt.gz
Dewpoint
39 40 36 32 29 29 29 27 24 25 23 22 21 23 23 24 25 25 25 25 26 25 24 22 22 23 26 26 26 26 26 26 26 26 27 28 28 28
39 37 35 32 30 29 29 26 25 25 24 22 21 22 23 21 23 24 23 24 23 24 26 24 21 22 23 26 26 25 25 25 25 25 25 26 27 28
38 37 32 31 30 29 28 27 25 25 24 24 22 23 24 24 23 23 23 23 22 21 24 24 21 21 23 23 23 23 23 23 24 24 24 24 24 25
37 34 32 30 30 29 29 27 27 27 25 24 24 23 23 24 24 23 22 18 19 17 20 22 21 21 21 21 22 23 24 25 25 25 25 25 25 25
35 32 30 30 29 29 28 27 27 24 25 24 23 23 23 22 21 21 21 22 18 17 17 20 19 21 21 20 21 23 23 24 24 25 25 26 27 26
34 32 31 30 28 28 28 27 26 26 25 24 23 22 22 21 20 19 20 19 17 13 11 13 16 18 21 22 23 23 24 24 24 24 27 28 29 28
32 30 30 30 29 30 28 28 26 25 24 22 21 21 19 18 17 19 21 21 17 15 14 14 15 15 16 19 20 23 24 23 23 24 25 27 28 28
29 28 27 28 28 30 29 29 29 28 26 25 24 22 21 20 21 21 24 21 17 14 14 15 16 15 16 17 19 18 22 24 25 27 28 28 28 29
27 27 26 24 26 26 28 30 30 30 29 28 27 25 25 25 25 29 26 20 18 14 16 16 18 18 17 15 19 22 23 25 26 27 28 29 30 30
25 25 26 27 28 28 28 28 29 32 32 30 28 28 26 25 25 28 25 21 17 16 17 18 18 18 19 19 19 21 23 26 27 28 28 29 29 29
27 26 25 26 27 28 29 30 29 28 28 29 29 29 28 25 24 24 24 20 21 17 18 17 16 17 16 18 20 28 29 29 27 28 28 29 30 31
23 22 23 22 23 25 28 28 28 29 30 29 29 29 27 26 26 25 24 21 20 19 17 16 16 15 14 18 19 21 22 23 23 25 27 28 30 30
19 20 21 22 24 26 28 28 28 28 29 31 34 34 33 24 23 25 23 21 20 18 17 16 17 15 16 15 17 20 21 23 26 27 27 28 29 30
19 21 21 22 23 24 26 26 26 27 28 29 31 32 32 27 23 23 24 23 21 20 20 21 20 18 17 17 17 18 21 22 25 27 28 29 28 30
18 20 21 22 24 26 28 28 28 29 28 29 29 31 31 29 26 24 23 21 22 23 19 20 20 18 19 19 17 19 18 19 24 27 28 28 28 30
17 20 21 24 27 28 29 29 30 30 29 29 30 32 32 29 26 25 24 23 22 22 21 22 21 19 19 18 18 19 18 18 22 26 27 28 29 30
18 20 21 22 23 24 26 27 28 28 30 30 30 31 31 28 28 27 26 25 24 22 20 20 22 21 21 19 19 18 20 22 25 28 24 26 26 28
15 16 16 19 20 21 22 24 25 30 31 31 31 31 30 30 29 28 28 26 23 22 19 18 15 16 17 18 20 20 22 22 25 23 24 26 25 26
12 12 13 16 18 17 19 21 22 24 31 30 31 30 28 27 29 28 27 26 24 22 19 18 15 15 13 14 19 22 20 21 22 23 24 25 24 25
11 10 11 12 13 15 17 18 20 21 24 30 28 28 28 28 28 27 27 26 24 21 18 17 13 13 13 13 17 20 24 24 23 22 22 23 25 28
9 9 10 10 11 14 16 17 17 20 21 24 29 29 28 27 28 28 27 26 26 22 17 14 12 15 15 12 16 19 27 28 25 23 22 21 21 24
9 8 9 10 13 13 15 16 15 15 18 21 23 29 29 28 28 27 27 25 23 19 16 14 14 13 12 11 12 16 21 25 26 26 24 22 21 18
8 8 9 10 12 12 12 14 13 13 15 18 20 20 21 27 29 28 26 25 25 17 15 14 13 13 11 10 11 12 15 18 19 20 25 24 23 23